Regional Weather Roundup
Issued by NWS

Home | Current Version | Previous Version | Text Only | Print | Product List | Glossary Off
Versions: 1 2 3 4 5 6 7 8 9 10 11 12 13 14 15 16 17 18 19 20 21 22 23 24 25 26 27 28 29 30 31 32 33 34 35 36 37 38 39 40 41 42 43 44 45 46 47 48 49 50

000
ASUS43 KMKX 280211
RWRWI

WISCONSIN REGIONAL WEATHER ROUNDUP
NATIONAL WEATHER SERVICE MILWAUKEE/SULLIVAN WI
900 PM CDT WED JUL 27 2016

NOTE: "FAIR" INDICATES FEW OR NO CLOUDS BELOW 12,000 FEET WITH NO
SIGNIFICANT WEATHER AND/OR OBSTRUCTIONS TO VISIBILITY.

WIZ001-002-006>008-014>016-023>028-280300-
NORTHWEST WISCONSIN

CITY           SKY/WX    TMP DP  RH WIND       PRES   REMARKS
SUPERIOR ARPT  CLOUDY    62  58  89 NE5       30.03R
ASHLAND        CLOUDY    63  61  93 N9        30.01F
HAYWARD        HVY RAIN  64  62  93 NE8       30.00S FOG
SIREN          CLOUDY    63  63 100 NE9       29.99R
CUMBERLAND     PTCLDY    63  63 100 N6        29.97S
RICE LAKE      CLOUDY    65  62  91 CALM      29.98S
CHETEK         CLOUDY    65  64  94 E7        29.96S
LADYSMITH      CLOUDY    65  64  93 CALM      30.00R
EAU CLAIRE     CLOUDY    66  66 100 NE6       29.94R
MENOMONIE      MOCLDY    67  67  99 NE3       29.94R
NEW RICHMOND   CLOUDY    67  66  95 NE3       29.96R
OSCEOLA        CLOUDY    67  67 100 N3        29.98R
$$

WIZ003>005-009-010-017-018-280300-
NORTH CENTRAL WISCONSIN

CITY           SKY/WX    TMP DP  RH WIND       PRES   REMARKS
MANITOWISH WTR RAIN      64  64 100 E5        30.01F
ARBOR VITAE    HVY RAIN  65  64  94 E6        30.02F
WOODRUFF       HVY RAIN  65  64  94 E6        30.02F
RHINELANDER    LGT RAIN  64  62  93 CALM      30.03F
EAGLE RIVER    HVY RAIN  65  65 100 CALM      30.03R
LAND O LAKES   LGT RAIN  65  65  97 CALM      30.04R
PHILLIPS       DRIZZLE   64  64  97 NE7       29.98F
TOMAHAWK       RAIN      63  61  95 CALM      30.01F
MEDFORD        LGT RAIN  62  62 100 E6        29.98S
MERRILL        RAIN      63  63 100 E5        30.01F
$$

WIZ029-030-035-036-043>047-280300-
CENTRAL WISCONSIN

CITY           SKY/WX    TMP DP  RH WIND       PRES   REMARKS
WAUSAU         RAIN      65  64  97 E6        30.00F FOG
MOSINEE        RAIN      64  64 100 NE6       30.01S
MARSHFIELD     LGT RAIN  66  63  90 NE10      29.96F
STEVENS POINT  HVY RAIN  65  64  96 NW14G20   30.01R
WAUPACA        CLOUDY    73  73  97 N3        29.96R
WAUTOMA        CLOUDY    72  71  97 CALM      29.95R
WISC RAPIDS    TSTM      68  65  90 VRB5      29.99R VSB 3/4
CAMP DOUGLAS   MOCLDY    72  68  88 N3        29.94R
$$

WIZ011>013-019>022-031-037>040-048>050-280300-
NORTHEAST WISCONSIN

CITY           SKY/WX    TMP DP  RH WIND       PRES   REMARKS
ANTIGO         RAIN      63  63 100 NW5       30.04R
SHAWANO        CLOUDY    74  69  84 N3        29.97R
OCONTO         CLOUDY   N/A N/A N/A CALM      29.94S
STURGEON BAY   PTCLDY    72  67  84 NE5       29.96S
GREEN BAY      CLOUDY    73  69  87 CALM      29.95S
MANITOWOC      PTCLDY    69  63  81 MISG      29.96S HAZE
APPLETON       MOCLDY    73  64  73 NE8       29.94S
CLINTONVILLE   LGT RAIN  72  68  88 CALM      29.97R
OSHKOSH        CLOUDY    73  67  81 CALM      29.94S
$$

WIZ032>034-041-042-053>061-280300-
SOUTHWEST WISCONSIN

CITY           SKY/WX    TMP DP  RH WIND       PRES   REMARKS
LA CROSSE      CLOUDY    77  68  73 SE6       29.90R
SPARTA         PTCLDY    73  69  86 N7        29.94R
VIROQUA        CLOUDY    73  67  82 CALM      29.95R
BOSCOBEL       CLOUDY    75  70  84 E3        29.92S
PRAIRIE DU CHI CLOUDY    74  66  75 CALM      29.92R
PLATTEVILLE    CLOUDY    75  71  87 CALM      29.95R
$$

WIZ056-057-062-063-064-067-068-280300-
SOUTH CENTRAL WISCONSIN

CITY           SKY/WX    TMP DP  RH WIND       PRES   REMARKS
REEDSBURG      CLOUDY   N/A N/A N/A E3        29.93R
BARABOO/DELLS  CLOUDY    73  69  85 CALM      29.94R
LONE ROCK      PTCLDY    73  69  87 CALM      29.93S
MINERAL POINT  PTCLDY    77  68  73 CALM      29.95R
MADISON        CLOUDY    77  68  73 SE7       29.93F
MIDDLETON      CLOUDY    78  68  73 SE8       29.93F
WATERTOWN      CLOUDY    73  68  82 CALM      29.94S
MONROE         CLOUDY    77  68  73 CALM      29.95S
JANESVILLE     MOCLDY    79  70  73 E6        29.94R HX  81
$$

WIZ051-052-058>065-066-070>072-280300-
SOUTHEAST WISCONSIN

CITY           SKY/WX    TMP DP  RH WIND       PRES   REMARKS
MILWAUKEE      MOCLDY    73  68  84 E3        29.95R
WAUKESHA       CLEAR     72  63  73 E6        29.96S
MILWAUKEE/TIMM CLEAR     73  63  68 E3        29.96S
RACINE         PTCLDY    72  67  84 CALM      29.96S
BURLINGTON     CLOUDY    72  67  84 E3        29.96R
KENOSHA        MOCLDY    72  69  90 E5        29.95S
FOND DU LAC    PTCLDY    74  67  78 E5        29.94S
SHEBOYGAN      FOG       67  66  97 CALM      29.96R VSB 3/4
WEST BEND      PTCLDY    70  64  83 CALM      29.96R
JUNEAU         CLOUDY    73  67  83 CALM      29.95S
$$

LSZ147-162-280300-
LAKE SUPERIOR

STATION/POSITION TIME  TEMP    WIND        PRES    WAVE
                       AIR SEA DIR/SP/G            HT/PER
                 (UTC) (F)     (DEG/KT/KT) (MB)    (FT/S)
W MID LAKE BUOY  0150   61 60  360/  2/  2 1016.3R   1/ 4
DEVILS ISLAND    0200   62      30/ 11/ 12 1016.9F
SAXON HARBOR     0100   67      60/  9/ 14 1015.6S
$$

LMZ867-665-643>646-280300-
LAKE MICHIGAN

STATION/POSITION TIME  TEMP    WIND        PRES    WAVE
                       AIR SEA DIR/SP/G            HT/PER
                 (UTC) (F)     (DEG/KT/KT) (MB)    (FT/S)
CHAMBERS ISLAND  0100   74     360/ 10/ 12 1014.6R
S GREEN BAY BUOY 0100   74 75   30/  6/  6   N/A
N MID LAKE BUOY  0150   71 71  360/ 14/ 16 1013.6F   0
NORTHPORT PIER   0100   73     100/  2/  4 1014.2F
SISTER BAY       0121   73        CALM       N/A
ALGOMA LAKESHORE 0113             CALM       N/A
KEWAUNEE LAKESHO 0100          160/  3/  4   N/A
SHEBOYGAN LAKESH 0200   66      10/  6/  6 1014.3S
PORT WASHINGTON  0140   69      30/  1/  3 1014.6F
ATWATER BUOY     0200   67 56  200/  4/  4 1015.7R
MILWAUKEE LAKESH 0110   71      20/  5/  6   N/A
S MID LAKE BUOY  0150   75 76   90/  4/  4 1013.3R   1
KENOSHA   LAKESH 0200   69      70/  2/  9 1013.9R
$$

TC  - TEMPERATURE IN CELSIUS
VSB - VISIBILITY IN STATUTE MILES
WCI - WIND CHILL INDEX
HX  - HEAT INDEX





USA.gov is the U.S. government's official web portal to all federal, state and local government web resources and services.